Location: Radomski Observatory
(40.2854°N, 79.5145°W)
Time: 03:24:52
(UTC-04:00)

Amateur Radio Satellites - All Passes

Search period start: 02 July 2016 02:54
Search period end: 03 July 2016 02:54
Location: Radomski Observatory, 40.2854°N, 79.5145°W

Satellite Date Start Highest point End Downlink Frequencies (MHz)
Time Altitude Azimuth
BEESAT 3 02 Jul 03:04:04 03:07:37 32° 309° (NW) 03:11:12 437.485
PCSat 02 Jul 03:23:18 03:27:46 25° 311° (NW) 03:32:15 145.827
Cosmos 2504 02 Jul 03:24:01 03:30:30 24° 280° (W) 03:36:47 435.465 / 435.565
AIST 2 02 Jul 03:28:01 03:29:36 12° 108° (ESE) 03:31:09 435.215
Oscar 19 02 Jul 03:29:38 03:34:28 43° 290° (WNW) 03:39:17 437.125/150
O/OREOS (USA 219) 02 Jul 03:32:43 03:36:41 30° 299° (WNW) 03:40:39 437.305
AO-7 02 Jul 03:33:58 03:39:09 17° 91° (E) 03:44:17 29.400- 29.500
BEESAT 2 02 Jul 03:50:15 03:53:20 21° 313° (NW) 03:56:27 435.950
SWISSCUBE 02 Jul 03:56:14 03:59:37 19° 267° (W) 04:03:02 437.505
ITAMSAT 1 02 Jul 04:00:17 04:05:26 56° 101° (E) 04:10:33 435.822/435.867
KKS-1 02 Jul 04:05:55 04:10:17 63° 74° (ENE) 04:14:41 437.445
Gurwin Techsat 1B 02 Jul 04:17:25 04:22:17 37° 291° (WNW) 04:27:08 435.225
AIST 1 02 Jul 04:22:54 04:27:10 72° 81° (E) 04:31:25
BEESAT 02 Jul 04:23:04 04:24:42 12° 270° (W) 04:26:19 436.000
MOZHAYETS 4 02 Jul 04:24:00 04:28:38 88° 79° (ENE) 04:33:18
ITUPSAT 1 02 Jul 04:27:11 04:28:23 11° 271° (W) 04:29:35 437.325
STARS 02 Jul 04:27:35 04:31:49 54° 73° (ENE) 04:36:05 437.465
CUBESAT XI-V 02 Jul 04:28:19 04:30:10 12° 62° (ENE) 04:32:00 437.345
GONETS M04 02 Jul 04:48:22 04:55:53 31° 70° (ENE) 05:03:23
PHONESAT 2.4 02 Jul 05:00:22 05:02:20 16° 150° (SSE) 05:04:18 2401.200-2431.200
AIST 2 02 Jul 05:03:28 05:07:32 60° 304° (NW) 05:11:39 435.215
HORYU 2 02 Jul 05:23:19 05:26:47 21° 95° (E) 05:30:14 437.375
AO-7 02 Jul 05:24:28 05:32:54 89° 102° (ESE) 05:41:16 29.400- 29.500
AO-85 02 Jul 05:35:07 05:39:21 37° 50° (NE) 05:43:15 145.980
ITAMSAT 1 02 Jul 05:40:52 05:44:26 19° 298° (WNW) 05:48:00 435.822/435.867
KKS-1 02 Jul 05:45:55 05:47:16 11° 270° (W) 05:48:36 437.445
Cosmos 2499 02 Jul 05:54:04 06:02:35 53° 76° (ENE) 06:10:30 435.465 / 435.565
CUBESAT XI-V 02 Jul 06:02:13 06:06:55 74° 259° (W) 06:11:37 437.345
STARS 02 Jul 06:06:30 06:08:30 13° 269° (W) 06:10:31 437.465
CUSAT 1 02 Jul 06:25:01 06:30:22 22° 89° (E) 06:35:04 437.405
PHONESAT 2.4 02 Jul 06:35:32 06:38:34 60° 164° (SSE) 06:41:36 2401.200-2431.200
Cubesat XI-IV 02 Jul 06:37:01 06:40:50 19° 93° (E) 06:44:38 437.490
ISS 02 Jul 06:41:35 06:42:53 12° 129° (SE) 06:44:13 145.825
GONETS M04 02 Jul 06:44:39 06:53:07 57° 269° (W) 07:01:37
HORYU 2 02 Jul 06:59:19 07:03:24 35° 290° (WNW) 07:07:28 437.375
NOAA 18 02 Jul 07:02:53 07:08:00 36° 98° (E) 07:13:04 137.9125
CUTE-I 02 Jul 07:09:11 07:14:13 39° 98° (E) 07:19:12 437.470
AO-85 02 Jul 07:16:13 07:19:30 21° 250° (WSW) 07:22:36 145.980
BRITE-PL 02 Jul 07:17:48 07:21:57 68° 101° (E) 07:26:12 437.365/2234.400
AO-7 02 Jul 07:18:44 07:24:36 22° 308° (NW) 07:30:28 29.400- 29.500
STRAND 1 02 Jul 07:21:12 07:26:11 52° 72° (ENE) 07:31:12 437.568
DANDE 02 Jul 07:22:15 07:29:30 34° 90° (E) 07:36:07 436.750
NOAA 15 02 Jul 07:24:07 07:29:22 74° 103° (ESE) 07:34:36 137.62
GOMX 1 02 Jul 07:30:51 07:34:54 41° 99° (E) 07:39:08 467.674
LilacSat-2 02 Jul 07:40:51 07:44:45 88° 282° (WNW) 07:48:39 437.200
Cosmos 2499 02 Jul 07:47:52 07:55:15 33° 276° (W) 08:02:13 435.465 / 435.565
CUSAT 1 02 Jul 08:04:35 08:12:08 67° 280° (W) 08:18:18 437.405
DOVE 4 02 Jul 08:10:35 08:14:54 51° 100° (E) 08:19:28 437.250
PHONESAT 2.4 02 Jul 08:12:05 08:15:09 84° 357° (N) 08:18:14 2401.200-2431.200
ISS 02 Jul 08:15:40 08:18:55 70° 325° (NW) 08:22:11 145.825
Cubesat XI-IV 02 Jul 08:15:59 08:21:12 52° 289° (WNW) 08:26:23 437.490
HO-68 02 Jul 08:19:24 08:25:04 24° 93° (E) 08:30:41 435.675
CANX-2 02 Jul 08:23:06 08:26:08 19° 93° (E) 08:29:09 2200.000
CINEMA 3 02 Jul 08:36:53 08:40:59 30° 96° (E) 08:45:12 145.822/145.860
SEEDS 02 Jul 08:38:58 08:41:46 17° 92° (E) 08:44:33 437.485
CUTE 1.7 + AOD 2 02 Jul 08:41:51 08:45:27 26° 95° (E) 08:49:01 437.475
NOAA 18 02 Jul 08:43:44 08:48:30 31° 294° (WNW) 08:53:17 137.9125
CUTE-I 02 Jul 08:49:37 08:54:03 27° 294° (WNW) 08:58:28 437.470
PRISM 02 Jul 08:53:11 08:57:19 68° 74° (ENE) 09:01:26 437.425
STRAND 1 02 Jul 09:02:11 09:05:39 18° 268° (W) 09:09:09 437.568
DANDE 02 Jul 09:03:58 09:12:07 53° 283° (WNW) 09:19:22 436.750
NOAA 15 02 Jul 09:05:43 09:08:30 15° 300° (WNW) 09:11:17 137.62
AAUSAT CUBESAT 2 02 Jul 09:06:10 09:09:10 19° 93° (E) 09:12:07 437.432
GOMX 1 02 Jul 09:09:56 09:12:44 17° 293° (WNW) 09:15:37 467.674
RS-15 02 Jul 09:29:44 09:32:18 11° 92° (E) 09:34:53 29.354- 29.394
CUBEBUG 2 02 Jul 09:43:00 09:47:30 46° 99° (E) 09:52:03 437.445
COMPASS 1 02 Jul 09:43:30 09:47:41 67° 102° (ESE) 09:51:48 437.405
BEESAT 3 02 Jul 09:44:59 09:47:05 14° 43° (NE) 09:49:11 437.485
PHONESAT 2.4 02 Jul 09:48:43 09:51:42 49° 199° (SSW) 09:54:41 2401.200-2431.200
DOVE 4 02 Jul 09:49:40 09:52:15 15° 294° (WNW) 09:54:55 437.250
ZACube-1 02 Jul 09:51:42 09:55:31 25° 95° (E) 09:59:19 437.345
AUBIESAT-1 02 Jul 09:53:04 09:56:10 20° 101° (E) 09:59:24 437.475
CUSAT 1 02 Jul 09:53:10 09:54:49 11° 295° (WNW) 09:56:25 437.405
Oscar 11 02 Jul 09:53:36 09:57:17 26° 95° (E) 10:00:56 145.826/435.025
ISS 02 Jul 09:53:39 09:55:50 16° 343° (NNW) 09:58:01 145.825
CANX-2 02 Jul 09:58:10 10:02:06 36° 289° (WNW) 10:05:59 2200.000
ANTELSAT 02 Jul 10:00:47 10:04:18 24° 67° (ENE) 10:07:52 437.575/2403.000
HO-68 02 Jul 10:06:07 10:13:12 62° 291° (WNW) 10:20:16 435.675
FUNcube-1 02 Jul 10:06:41 10:10:51 34° 97° (E) 10:15:01 145.935
Cosmos 2491 02 Jul 10:12:41 10:17:17 15° 60° (ENE) 10:21:53 435.465 / 435.565
SEEDS 02 Jul 10:13:41 10:17:36 38° 288° (WNW) 10:21:29 437.485
CINEMA 3 02 Jul 10:14:05 10:18:02 28° 290° (WNW) 10:22:05 145.822/145.860
CUTE 1.7 + AOD 2 02 Jul 10:17:39 10:21:12 26° 291° (WNW) 10:24:42 437.475
DELFI C3 02 Jul 10:18:21 10:21:23 21° 94° (E) 10:24:24 145.870
UWE-3 02 Jul 10:21:33 10:26:13 82° 103° (ESE) 10:30:54 435.000/436.395/437.385
PCSat 02 Jul 10:27:16 10:32:18 37° 53° (NE) 10:37:17 145.827
HUMSAT D 02 Jul 10:29:47 10:32:04 14° 91° (E) 10:34:19 437.325/437.525
BEESAT 2 02 Jul 10:30:26 10:33:31 21° 47° (NE) 10:36:35 435.950
M-CUBED/EXP-1 PRIME 02 Jul 10:35:15 10:39:17 75° 108° (ESE) 10:43:39 437.505
AAUSAT CUBESAT 2 02 Jul 10:40:59 10:44:43 33° 289° (WNW) 10:48:25 437.432
QB50P2 02 Jul 10:41:15 10:42:40 12° 63° (ENE) 10:44:06 145.880/145.840
POLYITAN 1 02 Jul 10:43:46 10:45:18 12° 63° (ENE) 10:46:50 437.675
TIGRISAT 02 Jul 10:50:09 10:54:27 80° 77° (ENE) 10:58:54 435.000
UNISAT 6 02 Jul 10:56:43 11:01:03 81° 258° (WSW) 11:05:30 437.425
JAS-2 02 Jul 11:12:59 11:16:11 14° 57° (ENE) 11:19:16 435.910
CUBEBUG 2 02 Jul 11:20:32 11:23:46 19° 294° (WNW) 11:27:03 437.445
BEESAT 3 02 Jul 11:21:16 11:25:12 66° 241° (WSW) 11:29:06 437.485
COMPASS 1 02 Jul 11:21:37 11:22:39 11° 297° (WNW) 11:23:40 437.405
PHONESAT 2.4 02 Jul 11:26:32 11:27:52 12° 213° (SSW) 11:29:11 2401.200-2431.200
AUBIESAT-1 02 Jul 11:26:58 11:30:39 35° 293° (WNW) 11:34:34 437.475
ZACube-1 02 Jul 11:27:45 11:31:45 31° 291° (WNW) 11:35:46 437.345
ESTCUBE 1 02 Jul 11:29:00 11:29:52 10° 89° (E) 11:30:42 437.505/2401.250
Oscar 11 02 Jul 11:29:42 11:33:20 26° 291° (WNW) 11:36:57 145.826/435.025
RS-15 02 Jul 11:30:52 11:41:56 62° 113° (ESE) 11:53:37 29.354- 29.394
ISS 02 Jul 11:32:07 11:33:20 12° 3° (N) 11:34:33 145.825
ANTELSAT 02 Jul 11:37:06 11:40:52 29° 264° (W) 11:44:45 437.575/2403.000
FUNcube-1 02 Jul 11:43:18 11:46:53 23° 292° (WNW) 11:50:28 145.935
AIST 2 02 Jul 11:49:42 11:50:05 10° 38° (NE) 11:50:28 435.215
CUBEBUG 1 02 Jul 11:50:35 11:52:15 12° 91° (E) 11:53:55 437.445
NANOSAT C BR1 02 Jul 11:51:12 11:55:19 62° 75° (ENE) 11:59:29 145.865
YUBILEINY 02 Jul 11:51:35 11:58:26 27° 82° (E) 12:05:17 435.215
DELFI C3 02 Jul 11:52:50 11:56:15 27° 290° (WNW) 11:59:37 145.870
QB50P1 02 Jul 11:56:39 12:00:49 77° 75° (ENE) 12:05:02 145.935-145.965
HO-68 02 Jul 11:57:02 11:59:30 12° 310° (NW) 12:01:59 435.675
POPSAT HIP 1 02 Jul 12:00:16 12:04:27 83° 76° (ENE) 12:08:40 437.405
UWE-3 02 Jul 12:00:44 12:01:59 11° 298° (WNW) 12:03:15 435.000/436.395/437.385
O/OREOS (USA 219) 02 Jul 12:03:21 12:07:39 44° 64° (ENE) 12:11:57 437.305
HUMSAT D 02 Jul 12:03:46 12:07:57 49° 287° (WNW) 12:12:04 437.325/437.525
Cosmos 2491 02 Jul 12:06:59 12:15:44 77° 82° (E) 12:24:27 435.465 / 435.565
BEESAT 2 02 Jul 12:07:46 12:11:29 37° 244° (WSW) 12:15:09 435.950
VELOX 1 02 Jul 12:08:47 12:11:47 18° 93° (E) 12:14:47 145.980
DUCHIFAT 1 02 Jul 12:09:38 12:13:48 85° 257° (WSW) 12:18:00 145.980
PCSat 02 Jul 12:10:50 12:15:35 31° 251° (WSW) 12:20:18 145.827
M-CUBED/EXP-1 PRIME 02 Jul 12:12:29 12:13:22 11° 301° (WNW) 12:14:16 437.505
QB50P2 02 Jul 12:13:46 12:17:55 63° 259° (W) 12:22:07 145.880/145.840
POLYITAN 1 02 Jul 12:16:25 12:20:33 62° 259° (W) 12:24:44 437.675
SPROUT 02 Jul 12:22:25 12:22:53 10° 90° (E) 12:23:21 437.525
UKube-1 02 Jul 12:27:05 12:29:54 17° 93° (E) 12:32:42 .
BUGSAT 1 02 Jul 12:47:58 12:51:57 68° 259° (WSW) 12:55:58 437.445
AISAT 02 Jul 12:49:08 12:53:27 53° 100° (E) 12:57:45 437.250
JAS-2 02 Jul 12:52:46 13:00:16 72° 74° (ENE) 13:07:02 435.910
DX 1 02 Jul 12:54:04 12:58:12 42° 99° (E) 13:02:19 434.975-435.025
50 SAT 02 Jul 12:59:27 13:03:08 80° 102° (ESE) 13:06:47 437.505
ESTCUBE 1 02 Jul 13:02:38 13:07:07 69° 285° (WNW) 13:11:34 437.505/2401.250
Oscar 19 02 Jul 13:07:16 13:11:44 31° 68° (ENE) 13:16:12 437.125/150
ISS 02 Jul 13:08:02 13:10:42 23° 24° (NNE) 13:13:23 145.825
CUBEBUG 1 02 Jul 13:24:38 13:28:53 57° 286° (WNW) 13:33:07 437.445
AIST 2 02 Jul 13:25:10 13:29:19 72° 57° (ENE) 13:33:28 435.215
TISAT 1 02 Jul 13:25:29 13:27:30 13° 92° (E) 13:29:29 437.305
NANOSAT C BR1 02 Jul 13:30:54 13:31:27 10° 270° (W) 13:32:00 145.865
ITAMSAT 1 02 Jul 13:43:08 13:44:13 11° 58° (ENE) 13:45:20 435.822/435.867
O/OREOS (USA 219) 02 Jul 13:43:48 13:46:40 17° 260° (W) 13:49:31 437.305
RS-15 02 Jul 13:44:03 13:54:56 45° 318° (NW) 14:06:26 29.354- 29.394
VELOX 1 02 Jul 13:44:17 13:48:24 39° 289° (WNW) 13:52:29 145.980
YUBILEINY 02 Jul 13:45:52 13:54:29 64° 281° (W) 14:03:13 435.215
SPROUT 02 Jul 13:54:59 13:59:15 66° 285° (WNW) 14:03:30 437.525
Gurwin Techsat 1B 02 Jul 13:58:13 14:03:10 41° 69° (ENE) 14:08:08 435.225
UKube-1 02 Jul 14:02:04 14:06:07 40° 289° (WNW) 14:10:09 .
Cosmos 2491 02 Jul 14:05:31 14:11:32 21° 281° (W) 14:17:35 435.465 / 435.565
Cosmos 2504 02 Jul 14:05:41 14:13:43 61° 91° (E) 14:22:16 435.465 / 435.565
SO-50 02 Jul 14:18:16 14:21:24 17° 109° (ESE) 14:24:32 436.795
SWISSCUBE 02 Jul 14:20:08 14:21:38 11° 90° (E) 14:23:07 437.505
AISAT 02 Jul 14:27:02 14:29:29 15° 296° (WNW) 14:31:55 437.250
DX 1 02 Jul 14:31:13 14:34:03 17° 295° (WNW) 14:36:53 434.975-435.025
AO-7 02 Jul 14:32:19 14:38:53 27° 55° (NE) 14:45:28 29.400- 29.500
JAS-2 02 Jul 14:40:14 14:45:38 21° 268° (W) 14:50:44 435.910
BEESAT 02 Jul 14:43:18 14:46:40 19° 93° (E) 14:49:59 436.000
ISS 02 Jul 14:44:08 14:47:20 55° 221° (SW) 14:50:32 145.825
Oscar 19 02 Jul 14:46:28 14:50:59 31° 264° (W) 14:55:32 437.125/150
ITUPSAT 1 02 Jul 14:47:09 14:50:41 20° 94° (E) 14:54:11 437.325
TISAT 1 02 Jul 14:59:20 15:03:25 50° 287° (WNW) 15:07:30 437.305
ITAMSAT 1 02 Jul 15:17:36 15:22:49 81° 76° (ENE) 15:28:05 435.822/435.867
Gurwin Techsat 1B 02 Jul 15:38:57 15:43:14 24° 266° (W) 15:47:32 435.225
YUBILEINY 02 Jul 15:50:20 15:53:18 12° 304° (WNW) 15:56:15 435.215
SWISSCUBE 02 Jul 15:55:08 15:59:55 72° 286° (WNW) 16:04:40 437.505
SO-50 02 Jul 15:56:36 16:01:26 59° 305° (NW) 16:06:15 436.795
KKS-1 02 Jul 15:59:13 16:01:09 13° 91° (E) 16:03:04 437.445
Cosmos 2504 02 Jul 16:00:40 16:07:40 29° 292° (WNW) 16:15:02 435.465 / 435.565
RS-15 02 Jul 16:03:11 16:11:51 22° 351° (N) 16:20:46 29.354- 29.394
BEESAT 02 Jul 16:20:05 16:24:38 45° 289° (WNW) 16:29:10 436.000
MOZHAYETS 4 02 Jul 16:20:18 16:23:51 21° 94° (E) 16:27:23
HORYU 2 02 Jul 16:21:14 16:24:24 20° 65° (ENE) 16:27:36 437.375
AO-7 02 Jul 16:22:34 16:30:53 73° 254° (WSW) 16:39:17 29.400- 29.500
ITUPSAT 1 02 Jul 16:24:09 16:28:40 42° 290° (WNW) 16:33:09 437.325
AIST 1 02 Jul 16:51:32 16:55:37 42° 93° (E) 16:59:40
ITAMSAT 1 02 Jul 17:01:11 17:02:53 11° 271° (W) 17:04:35 435.822/435.867
NOAA 15 02 Jul 17:06:55 17:09:48 15° 60° (ENE) 17:12:40 137.62
KKS-1 02 Jul 17:33:41 17:38:03 58° 287° (WNW) 17:42:26 437.445
SO-50 02 Jul 17:41:31 17:42:56 11° 325° (NW) 17:44:21 436.795
GONETS M04 02 Jul 17:49:09 17:56:46 35° 85° (E) 18:04:21
STARS 02 Jul 17:53:26 17:57:51 71° 285° (WNW) 18:02:14 437.465
HORYU 2 02 Jul 17:56:32 18:00:41 39° 262° (W) 18:04:52 437.375
MOZHAYETS 4 02 Jul 17:56:52 18:01:06 36° 290° (WNW) 18:05:19
Cubesat XI-IV 02 Jul 17:58:14 18:02:53 31° 67° (ENE) 18:07:33 437.490
CUBESAT XI-V 02 Jul 17:59:43 18:03:42 28° 95° (E) 18:07:38 437.345
DANDE 02 Jul 18:07:09 18:07:51 10° 59° (ENE) 18:08:31 436.750
RS-15 02 Jul 18:20:03 18:30:11 28° 27° (NNE) 18:40:22 29.354- 29.394
AO-7 02 Jul 18:21:42 18:24:57 13° 272° (W) 18:28:15 29.400- 29.500
LilacSat-2 02 Jul 18:22:15 18:25:48 39° 73° (ENE) 18:29:23 437.200
BRITE-PL 02 Jul 18:27:43 18:32:38 76° 76° (ENE) 18:37:11 437.365/2234.400
NOAA 18 02 Jul 18:28:35 18:33:59 66° 72° (ENE) 18:39:27 137.9125
Cosmos 2499 02 Jul 18:28:55 18:36:42 44° 87° (E) 18:44:51 435.465 / 435.565
CUTE-I 02 Jul 18:30:22 18:35:37 61° 72° (ENE) 18:40:55 437.470
AIST 1 02 Jul 18:30:53 18:33:25 15° 289° (WNW) 18:35:58
GOMX 1 02 Jul 18:38:42 18:42:55 41° 73° (ENE) 18:46:56 467.674
CUSAT 1 02 Jul 18:42:14 18:45:28 80° 80° (E) 18:48:10 437.405
NOAA 15 02 Jul 18:43:39 18:48:55 74° 256° (WSW) 18:54:13 137.62
HO-68 02 Jul 18:49:05 18:53:43 19° 55° (NE) 18:58:21 435.675
DOVE 4 02 Jul 19:16:00 19:20:03 45° 73° (ENE) 19:24:02 437.250
CANX-2 02 Jul 19:16:24 19:18:32 14° 64° (ENE) 19:20:42 2200.000
SEEDS 02 Jul 19:31:27 19:33:11 12° 63° (ENE) 19:34:55 437.485
STRAND 1 02 Jul 19:33:14 19:36:47 18° 92° (E) 19:40:17 437.568
CUTE 1.7 + AOD 2 02 Jul 19:34:31 19:37:30 19° 66° (ENE) 19:40:30 437.475
CUBESAT XI-V 02 Jul 19:37:06 19:41:00 28° 291° (WNW) 19:44:52 437.345
Cubesat XI-IV 02 Jul 19:38:04 19:42:51 33° 263° (W) 19:47:41 437.490
CINEMA 3 02 Jul 19:38:54 19:42:09 23° 68° (ENE) 19:45:26 145.822/145.860
GONETS M04 02 Jul 19:44:56 19:53:15 49° 284° (WNW) 20:01:38
DANDE 02 Jul 19:47:20 19:51:27 45° 268° (W) 19:54:37 436.750
AO-85 02 Jul 19:49:23 19:52:53 18° 108° (ESE) 19:56:20 145.980
AAUSAT CUBESAT 2 02 Jul 19:57:04 19:59:01 13° 64° (ENE) 20:00:58 437.432
LilacSat-2 02 Jul 19:58:24 20:00:17 13° 268° (W) 20:02:10 437.200
BRITE-PL 02 Jul 20:10:53 20:11:29 10° 269° (W) 20:12:05 437.365/2234.400
NOAA 18 02 Jul 20:11:52 20:15:06 16° 269° (W) 20:18:21 137.9125
CUTE-I 02 Jul 20:12:45 20:16:04 16° 269° (W) 20:19:23 437.470
GOMX 1 02 Jul 20:18:21 20:21:10 16° 267° (W) 20:23:55 467.674
Cosmos 2499 02 Jul 20:21:55 20:29:48 42° 287° (WNW) 20:38:05 435.465 / 435.565
RS-15 02 Jul 20:32:57 20:45:21 73° 55° (NE) 20:57:35 29.354- 29.394
HO-68 02 Jul 20:33:20 20:40:30 88° 252° (WSW) 20:47:44 435.675
COMPASS 1 02 Jul 20:33:29 20:37:26 40° 72° (ENE) 20:41:25 437.405
AUBIESAT-1 02 Jul 20:39:48 20:42:07 18° 63° (ENE) 20:44:28 437.475
CUBEBUG 2 02 Jul 20:40:56 20:44:41 33° 70° (ENE) 20:48:33 437.445
ZACube-1 02 Jul 20:47:45 20:50:40 18° 66° (ENE) 20:53:38 437.345
Oscar 11 02 Jul 20:48:15 20:51:26 20° 67° (ENE) 20:54:37 145.826/435.025
CANX-2 02 Jul 20:49:43 20:53:55 55° 260° (W) 20:58:09 2200.000
DOVE 4 02 Jul 20:55:53 20:58:00 13° 268° (W) 21:00:07 437.250
FUNcube-1 02 Jul 21:02:05 21:05:31 24° 68° (ENE) 21:09:01 145.935
SEEDS 02 Jul 21:04:09 21:08:21 60° 260° (W) 21:12:35 437.485
DELFI C3 02 Jul 21:05:07 21:06:54 13° 64° (ENE) 21:08:39 145.870
CUTE 1.7 + AOD 2 02 Jul 21:09:04 21:13:03 38° 262° (W) 21:17:04 437.475
STRAND 1 02 Jul 21:11:14 21:16:14 51° 288° (WNW) 21:21:11 437.568
CINEMA 3 02 Jul 21:15:38 21:19:11 27° 265° (W) 21:22:47 145.822/145.860
UWE-3 02 Jul 21:17:57 21:22:05 59° 75° (ENE) 21:26:22 435.000/436.395/437.385
M-CUBED/EXP-1 PRIME 02 Jul 21:22:13 21:25:27 87° 77° (ENE) 21:28:47 437.505
AO-85 02 Jul 21:27:31 21:32:55 67° 304° (NW) 21:38:08 145.980
AAUSAT CUBESAT 2 02 Jul 21:29:55 21:34:02 55° 261° (W) 21:38:09 437.432
YUBILEINY 02 Jul 22:03:20 22:06:30 12° 57° (ENE) 22:09:40 435.215
PRISM 02 Jul 22:10:24 22:14:26 67° 286° (WNW) 22:18:28 437.425
COMPASS 1 02 Jul 22:10:33 22:13:10 16° 268° (W) 22:15:48 437.405
AUBIESAT-1 02 Jul 22:13:51 22:16:30 22° 259° (W) 22:19:13 437.475
CUBEBUG 2 02 Jul 22:18:19 22:21:24 20° 267° (W) 22:24:34 437.445
ZACube-1 02 Jul 22:22:41 22:26:39 38° 263° (W) 22:30:43 437.345
Oscar 11 02 Jul 22:23:19 22:27:18 35° 263° (W) 22:31:20 145.826/435.025
HO-68 02 Jul 22:25:29 22:29:07 14° 271° (W) 22:32:47 435.675
ESTCUBE 1 02 Jul 22:28:48 22:29:37 10° 61° (ENE) 22:30:27 437.505/2401.250
DELFI C3 02 Jul 22:37:21 22:41:17 52° 260° (W) 22:45:14 145.870
FUNcube-1 02 Jul 22:37:58 22:41:38 28° 265° (W) 22:45:22 145.935
TIGRISAT 02 Jul 22:42:53 22:46:10 19° 93° (E) 22:49:27 435.000
RS-15 02 Jul 22:46:30 22:56:52 34° 256° (WSW) 23:07:09 29.354- 29.394
CUBEBUG 1 02 Jul 22:47:36 22:48:19 10° 62° (ENE) 22:49:02 437.445
UNISAT 6 02 Jul 22:49:18 22:53:02 23° 94° (E) 22:56:46 437.425
SO-50 02 Jul 22:49:23 22:52:20 16° 40° (NE) 22:55:13 436.795
HUMSAT D 02 Jul 22:53:56 22:58:07 78° 258° (WSW) 23:02:23 437.325/437.525
UWE-3 02 Jul 22:57:41 22:58:58 11° 271° (W) 23:00:17 435.000/436.395/437.385
VELOX 1 02 Jul 23:06:11 23:08:53 16° 64° (ENE) 23:11:33 145.980
AO-85 02 Jul 23:11:44 23:14:19 13° 322° (NW) 23:16:50 145.980
Cosmos 2491 02 Jul 23:15:10 23:20:10 17° 77° (ENE) 23:25:10 435.465 / 435.565
UKube-1 02 Jul 23:21:52 23:24:14 15° 64° (ENE) 23:26:35 .
ANTELSAT 02 Jul 23:28:14 23:32:53 59° 100° (E) 23:37:31 437.575/2403.000
50 SAT 02 Jul 23:36:45 23:40:04 31° 71° (ENE) 23:43:24 437.505
NANOSAT C BR1 02 Jul 23:39:01 23:39:39 10° 90° (E) 23:40:17 145.865
QB50P1 02 Jul 23:43:36 23:45:34 13° 91° (E) 23:47:32 145.935-145.965
AISAT 02 Jul 23:45:53 23:50:02 43° 72° (ENE) 23:54:13 437.250
POPSAT HIP 1 02 Jul 23:47:02 23:49:18 14° 92° (E) 23:51:33 437.405
DX 1 02 Jul 23:49:03 23:52:58 35° 70° (ENE) 23:56:55 434.975-435.025
DUCHIFAT 1 02 Jul 23:55:26 23:58:01 16° 93° (E) 00:00:36 145.980
YUBILEINY 02 Jul 23:56:29 00:05:18 64° 79° (E) 00:14:02 435.215
QB50P2 02 Jul 23:59:46 00:03:03 21° 94° (E) 00:06:19 145.880/145.840
Cosmos 2504 02 Jul 23:59:56 00:06:37 23° 65° (ENE) 00:13:02 435.465 / 435.565
ESTCUBE 1 03 Jul 00:01:12 00:05:45 82° 258° (WSW) 00:10:18 437.505/2401.250
POLYITAN 1 03 Jul 00:02:22 00:05:42 22° 95° (E) 00:09:02 437.675
TIGRISAT 03 Jul 00:18:35 00:23:01 44° 288° (WNW) 00:27:28 435.000
CUBEBUG 1 03 Jul 00:19:38 00:23:58 76° 257° (WSW) 00:28:19 437.445
UNISAT 6 03 Jul 00:25:32 00:29:47 35° 290° (WNW) 00:34:03 437.425
SO-50 03 Jul 00:28:43 00:33:23 75° 240° (WSW) 00:37:52 436.795
BUGSAT 1 03 Jul 00:31:02 00:33:48 17° 94° (E) 00:36:35 437.445
VELOX 1 03 Jul 00:40:41 00:44:56 48° 260° (W) 00:49:12 145.980
SPROUT 03 Jul 00:47:37 00:51:52 86° 76° (ENE) 00:56:08 437.525
UKube-1 03 Jul 00:55:38 00:59:49 51° 259° (W) 01:04:03 .
ANTELSAT 03 Jul 01:06:26 01:09:06 15° 296° (WNW) 01:11:46 437.575/2403.000
Cosmos 2491 03 Jul 01:06:54 01:15:40 89° 102° (ESE) 01:24:28 435.465 / 435.565
PCSat 03 Jul 01:08:31 01:13:23 35° 110° (ESE) 01:18:18 145.827
50 SAT 03 Jul 01:11:29 01:13:49 16° 267° (W) 01:16:10 437.505
NANOSAT C BR1 03 Jul 01:11:33 01:15:46 64° 286° (WNW) 01:19:59 145.865
BEESAT 3 03 Jul 01:11:59 01:15:01 22° 112° (ESE) 01:18:05 437.485
QB50P1 03 Jul 01:17:29 01:21:38 52° 286° (WNW) 01:25:47 145.935-145.965
POPSAT HIP 1 03 Jul 01:21:12 01:25:19 48° 287° (WNW) 01:29:26 437.405
Oscar 19 03 Jul 01:22:11 01:22:51 10° 89° (E) 01:23:30 437.125/150
AISAT 03 Jul 01:23:57 01:26:42 16° 267° (W) 01:29:28 437.250
SWISSCUBE 03 Jul 01:25:55 01:28:22 14° 62° (ENE) 01:30:49 437.505
DX 1 03 Jul 01:26:03 01:29:14 20° 266° (W) 01:32:26 434.975-435.025
DUCHIFAT 1 03 Jul 01:29:53 01:33:54 42° 288° (WNW) 01:37:54 145.980
QB50P2 03 Jul 01:35:05 01:38:53 32° 290° (WNW) 01:42:41 145.880/145.840
POLYITAN 1 03 Jul 01:37:44 01:41:31 31° 290° (WNW) 01:45:18 437.675
JAS-2 03 Jul 01:48:46 01:54:09 60° 100° (E) 01:59:16 435.910
BEESAT 03 Jul 01:49:17 01:52:52 21° 65° (ENE) 01:56:28 436.000
TISAT 1 03 Jul 01:50:01 01:54:09 75° 258° (WSW) 01:58:20 437.305
Cosmos 2504 03 Jul 01:52:09 02:01:00 78° 266° (W) 02:09:21 435.465 / 435.565
ITUPSAT 1 03 Jul 01:53:26 01:57:11 23° 66° (ENE) 02:00:57 437.325
YUBILEINY 03 Jul 01:54:24 02:01:21 27° 278° (W) 02:08:18 435.215
BEESAT 2 03 Jul 01:58:52 02:02:33 39° 116° (ESE) 02:06:17 435.950
BUGSAT 1 03 Jul 02:05:29 02:09:17 36° 289° (WNW) 02:13:07 437.445
O/OREOS (USA 219) 03 Jul 02:14:53 02:19:17 57° 108° (ESE) 02:23:42 437.305
Gurwin Techsat 1B 03 Jul 02:15:58 02:19:18 17° 91° (E) 02:22:37 435.225
